CZ-6A R/B, 64961

Orbit data source: Space-Track

CZ-6A R/B, 64961 is space debris in LEO originally from a launch on Sun, 27 Jul 2025 UTC launched from the Taiyaun Space Center, China (TSC). Debris objects in space refer to the collection of defunct objects orbiting the Earth. Examples of debris include non-operational satellites, rocket bodies, and fragments generated from explosions, collisions, or faulty payload assembly.

Loading next visibility...
Identifier
64961, 2025-159F
Orbit
LEO
Country
Flag of CNCN / PRC
Related business
Manufacturer
SAST
Mission
Spacecraft
Bus & Motor
CZ-6A STAGE 2, YF-115
Mass
~6,000 kg wet, ~6,000 kg dry
Launch date (UTC)
2025-07-27 (1 year ago)
Launch vehicle
Unknown
Launch site
Taiyaun Space Center, China (TSC)
Object type
Payload
Rocket body
Debris
Shape & HBR
CYL, 4.0 m
Radar Cross Section
Large (>1 m²)

Expand to show TLE details & history
Last TLE update: 16 hours ago

TLE from 16 hours ago
0 CZ-6A R/B
1 64961U 25159F   26265.44404096  .00000055  00000-0  28130-4 0  9998
2 64961  86.5047 232.8407 0100694 265.6775  93.2888 13.94076826 58773
Epoch: 2026-09-22T10:39Z
TLE epoch observation values (Epoch: 2026-09-22T10:39:25.138Z)
Latitude
-0.00002°
Longitude
71.67652°
Altitude
922.324 km
Speed
7.388 km/s
True Right ascension
15h 31m 21s
True Declination
0° 00' 00"
Sunlit
Object was in daylight at epoch
Visualization orbit readout
Latitude
Unknown
Longitude
Unknown
Altitude
Unknown
Speed
Unknown
Apparent Right ascension
Unknown
Apparent Declination
Unknown
Sunlit
N/A
Visualization observer readout
Local Sidereal Time
20:15:01
Azimuth
Unknown
Elevation
Unknown
Doppler factor
Unknown
Orbital elements
Apogee altitude
984.799 km
Perigee altitude
837.996 km
Semi-major axis
7,289.535 km
Eccentricity
0.01007
Inclination
86.5047°
RAAN
232.8407°
Arg. of periapsis
265.6775°
True anomaly
94.43986°
Mean anomaly
93.2888°
Eccentric anomaly
93.86442°
Mean motion
3.48733 °/min
Orbital period
103.23 mins
BSTAR
0.00002813
Loading maneuver chart data...
Computing Atmospheric mass density...
Loading historical data...
Loading historical data...
Loading historical data...
Loading historical data...
Loading historical data...
Loading historical data...
Loading historical data...

Documentation

Showing up to 5 results
|